Location: Champignolles
(47.0543°N, 4.5663°E)
Time: 15:45:41
(UTC+00:00)

YAOGAN 1 - Pass Details

Date: 30 November 2020
Orbit: 618 x 620 km, 97.9° (Epoch: 27 January)

Event Time Altitude Azimuth Distance (km) Brightness Sun altitude
Exits shadow 16:51:40 12° 72° (ENE) 1,835 4.3 -9.5°
Maximum altitude 16:52:33 13° 59° (ENE) 1,795 4.3 -9.6°
Drops below altitude 10° 16:54:33 10° 31° (NNE) 1,998 4.7 -9.9°
Sets 16:57:49 0° 4° (N) 2,911 5.8 -10.5°
